{"data":{"norad_id":64178,"intl_designator":"2025-113J","name":"STARLINK-34227","alt_names":[],"object_type":"PAYLOAD","status":"ACTIVE","operator":null,"country":"US","launch_date":"2025-05-28","launch_site_code":"AFETR","launch_vehicle":null,"mission":null,"orbit_class":"UNKNOWN","rcs_meters":null,"size_class":null,"mass_kg":null,"dimensions":null,"purposes":["comms"],"wikipedia_slug":null,"has_3d_model":false,"image_url":null,"decayed_at":null,"tle_current":{"epoch":"2026-09-20T16:52:13.014624Z","epoch_age_seconds":122838,"freshness":"FRESH","line1":"1 64178U 25113J   26263.70292841  .00036706  00000+0  10929-2 0  9994","line2":"2 64178  53.1599 264.5267 0001686  79.0894 281.0298 15.34378095 74938","mean_motion":15.34378095,"eccentricity":0.0001686,"inclination_deg":53.1599,"raan_deg":264.5267,"arg_perigee_deg":79.0894,"mean_anomaly_deg":281.0298,"bstar":0.0010929,"rev_number":7493,"period_min":93.849097865282,"perigee_km":461.61497061638,"apogee_km":463.92172389948,"semimajor_km":6840.9053472579,"source":"CELESTRAK","updated_at":"2026-09-21T09:00:35.244290Z"}}}